sat.trackr.live / text

‹ back to catalog

UNKNOWN

NORAD 82529

UNKNOWN UNKNOWN UNKNOWN

§ Identity

Operator
Country
Launch date
Launch site
Launch vehicle
Mass (kg)
RCS (m²)

External: N2YO · Heavens-Above

§ Orbital elements

Epoch: 2026-09-06T10:58:19.056000Z

Period
107.34 min
Inclination
99.7763°
Eccentricity
0.0240420
Mean motion
13.41512640 rev/d
Perigee alt
923.8 km
Apogee alt
1,283.5 km
Semi-major
7,481.8 km
B*
2.5503e-4
RAAN
329.2886°
Arg perigee
307.7365°
Mean anomaly
112.3703°
Rev number
62,563

§ Raw data

UNKNOWN1 82529U          26249.45716500  .00000124  00000+0  25503-3 0  99912 82529  99.7763 329.2886 0240420 307.7365 112.3703 13.41512640625636

JSON: /api/v1/satellites/82529 · /tle

For live sub-satellite position, see the globe view (requires WebGL).

§ Visibility from observer

Set your observer location to see the next 7 days of passes ≥ 10°. The values pass through the URL so the page stays shareable.

No JS? Fill the form by hand. The geolocation button needs JavaScript.